Previsão horária em Al Mukalla

Hoje, 18 Janeiro, Segunda-feira

Tempo Temperatura Precipitação Vento Pressão Humidade
00:00 +21°C° 0 mm 0 m/s 748 mmHg 70%
01:00 +21°C° 0 mm 0 m/s 748 mmHg 71%
02:00 +20°C° 0 mm 0 m/s 747 mmHg 72%
03:00 +20°C° 0 mm 0 m/s 747 mmHg 72%
04:00 +20°C° 0 mm 0 m/s 748 mmHg 72%
05:00 +19°C° 0 mm 0 m/s 748 mmHg 72%
06:00 +19°C° 0 mm 0 m/s 748 mmHg 72%
07:00 +23°C° 0 mm 1 m/s 749 mmHg 63%
08:00 +25°C° 0 mm 1 m/s 749 mmHg 53%
09:00 +28°C° 0 mm 1 m/s 749 mmHg 43%
10:00 +29°C° 0 mm 2 m/s 749 mmHg 42%
11:00 +30°C° 0 mm 2 m/s 748 mmHg 40%
12:00 +31°C° 0 mm 2 m/s 748 mmHg 39%
13:00 +30°C° 0 mm 3 m/s 747 mmHg 42%
14:00 +30°C° 0 mm 3 m/s 747 mmHg 45%
15:00 +30°C° 0 mm 3 m/s 747 mmHg 48%
16:00 +28°C° 0 mm 2 m/s 747 mmHg 54%
17:00 +27°C° 0 mm 2 m/s 747 mmHg 60%
18:00 +26°C° 0 mm 1 m/s 748 mmHg 67%
19:00 +25°C° 0 mm 1 m/s 748 mmHg 69%
20:00 +25°C° 0 mm 1 m/s 749 mmHg 72%
21:00 +24°C° 0 mm 1 m/s 749 mmHg 74%
22:00 +24°C° 0 mm 1 m/s 749 mmHg 76%
23:00 +23°C° 0 mm 1 m/s 749 mmHg 77%

Amanhã, 19 Janeiro, Terça-feira

Tempo Temperatura Precipitação Vento Pressão Humidade
00:00 +23°C° 0 mm 1 m/s 749 mmHg 79%
01:00 +23°C° 0 mm 1 m/s 749 mmHg 79%
02:00 +22°C° 0 mm 1 m/s 749 mmHg 79%
03:00 +22°C° 0 mm 1 m/s 748 mmHg 79%
04:00 +21°C° 0 mm 1 m/s 749 mmHg 73%
05:00 +21°C° 0 mm 1 m/s 749 mmHg 67%
06:00 +21°C° 0 mm 1 m/s 749 mmHg 61%
07:00 +23°C° 0 mm 1 m/s 749 mmHg 51%
08:00 +25°C° 0 mm 1 m/s 750 mmHg 42%
09:00 +28°C° 0 mm 1 m/s 750 mmHg 33%
10:00 +29°C° 0 mm 2 m/s 750 mmHg 32%
11:00 +30°C° 0 mm 2 m/s 749 mmHg 30%
12:00 +30°C° 0 mm 3 m/s 749 mmHg 29%
13:00 +30°C° 0 mm 3 m/s 748 mmHg 31%
14:00 +30°C° 0 mm 3 m/s 747 mmHg 33%
15:00 +30°C° 0 mm 3 m/s 747 mmHg 34%
16:00 +29°C° 0 mm 2 m/s 747 mmHg 38%
17:00 +27°C° 0 mm 2 m/s 747 mmHg 42%
18:00 +26°C° 0 mm 1 m/s 748 mmHg 46%
19:00 +25°C° 0 mm 1 m/s 748 mmHg 50%
20:00 +22°C° 0 mm 0 m/s 749 mmHg 54%
21:00 +22°C° 0 mm 0 m/s 749 mmHg 58%
22:00 +21°C° 0 mm 0 m/s 749 mmHg 55%
23:00 +21°C° 0 mm 0 m/s 749 mmHg 51%

Depois de amanhã, 20 Janeiro, Quarta-feira

Tempo Temperatura Precipitação Vento Pressão Humidade
00:00 +21°C° 0 mm 0 m/s 749 mmHg 48%
01:00 +20°C° 0 mm 0 m/s 749 mmHg 48%
02:00 +22°C° 0 mm 1 m/s 749 mmHg 49%
03:00 +21°C° 0 mm 1 m/s 748 mmHg 49%
04:00 +21°C° 0 mm 1 m/s 749 mmHg 50%
05:00 +21°C° 0 mm 1 m/s 749 mmHg 51%
06:00 +20°C° 0 mm 1 m/s 749 mmHg 52%
07:00 +23°C° 0 mm 1 m/s 750 mmHg 45%
08:00 +25°C° 0 mm 2 m/s 750 mmHg 39%
09:00 +28°C° 0 mm 2 m/s 750 mmHg 32%
10:00 +29°C° 0 mm 2 m/s 750 mmHg 30%
11:00 +30°C° 0 mm 3 m/s 750 mmHg 27%
12:00 +31°C° 0 mm 3 m/s 749 mmHg 25%
13:00 +30°C° 0 mm 3 m/s 749 mmHg 26%
14:00 +30°C° 0 mm 3 m/s 748 mmHg 28%
15:00 +30°C° 0 mm 3 m/s 748 mmHg 30%
16:00 +29°C° 0 mm 3 m/s 748 mmHg 38%
17:00 +27°C° 0 mm 2 m/s 749 mmHg 46%
18:00 +26°C° 0 mm 2 m/s 749 mmHg 54%
19:00 +25°C° 0 mm 2 m/s 749 mmHg 56%
20:00 +25°C° 0 mm 2 m/s 750 mmHg 58%
21:00 +24°C° 0 mm 2 m/s 750 mmHg 61%
22:00 +24°C° 0 mm 2 m/s 750 mmHg 58%
23:00 +23°C° 0 mm 2 m/s 750 mmHg 56%

21 Janeiro, Quinta-feira

Tempo Temperatura Precipitação Vento Pressão Humidade
00:00 +23°C° 0 mm 2 m/s 750 mmHg 54%
01:00 +23°C° 0 mm 2 m/s 749 mmHg 51%
02:00 +21°C° 0 mm 2 m/s 749 mmHg 49%
03:00 +21°C° 0 mm 2 m/s 749 mmHg 46%
04:00 +20°C° 0 mm 2 m/s 749 mmHg 49%
05:00 +20°C° 0 mm 2 m/s 749 mmHg 52%
06:00 +19°C° 0 mm 2 m/s 750 mmHg 55%
07:00 +21°C° 0 mm 2 m/s 750 mmHg 49%
08:00 +25°C° 0 mm 2 m/s 750 mmHg 43%
09:00 +27°C° 0 mm 2 m/s 751 mmHg 37%
10:00 +28°C° 0 mm 3 m/s 750 mmHg 36%
11:00 +29°C° 0 mm 3 m/s 750 mmHg 34%
12:00 +30°C° 0 mm 4 m/s 749 mmHg 33%
13:00 +30°C° 0 mm 3 m/s 749 mmHg 37%
14:00 +29°C° 0 mm 3 m/s 748 mmHg 41%
15:00 +29°C° 0 mm 3 m/s 747 mmHg 45%
16:00 +28°C° 0 mm 3 m/s 748 mmHg 51%
17:00 +27°C° 0 mm 3 m/s 748 mmHg 57%
18:00 +26°C° 0 mm 2 m/s 749 mmHg 62%
19:00 +25°C° 0 mm 2 m/s 749 mmHg 64%
20:00 +25°C° 0 mm 2 m/s 749 mmHg 66%
21:00 +24°C° 0 mm 1 m/s 750 mmHg 68%
22:00 +24°C° 0 mm 1 m/s 750 mmHg 70%
23:00 +23°C° 0 mm 1 m/s 750 mmHg 72%

22 Janeiro, Sexta-feira

Tempo Temperatura Precipitação Vento Pressão Humidade
00:00 +23°C° 0 mm 1 m/s 750 mmHg 74%
01:00 +22°C° 0 mm 1 m/s 750 mmHg 71%
02:00 +22°C° 0 mm 1 m/s 749 mmHg 68%
03:00 +21°C° 0 mm 2 m/s 749 mmHg 65%
04:00 +21°C° 0 mm 2 m/s 750 mmHg 58%
05:00 +21°C° 0 mm 2 m/s 750 mmHg 51%
06:00 +21°C° 0 mm 3 m/s 751 mmHg 44%
07:00 +22°C° 0 mm 3 m/s 751 mmHg 38%
08:00 +25°C° 0 mm 3 m/s 752 mmHg 32%
09:00 +27°C° 0 mm 3 m/s 752 mmHg 26%
10:00 +29°C° 0 mm 3 m/s 752 mmHg 24%
11:00 +30°C° 0 mm 3 m/s 751 mmHg 22%
12:00 +33°C° 0 mm 3 m/s 750 mmHg 20%
13:00 +31°C° 0 mm 3 m/s 750 mmHg 24%
14:00 +31°C° 0 mm 3 m/s 749 mmHg 27%
15:00 +32°C° 0 mm 4 m/s 748 mmHg 30%
16:00 +29°C° 0 mm 3 m/s 748 mmHg 37%
17:00 +28°C° 0 mm 2 m/s 748 mmHg 43%
18:00 +26°C° 0 mm 1 m/s 749 mmHg 50%
19:00 +26°C° 0 mm 1 m/s 749 mmHg 50%
20:00 +25°C° 0 mm 2 m/s 750 mmHg 50%
21:00 +25°C° 0 mm 2 m/s 750 mmHg 51%
22:00 +24°C° 0 mm 2 m/s 750 mmHg 47%
23:00 +24°C° 0 mm 3 m/s 750 mmHg 43%

23 Janeiro, Sábado

Tempo Temperatura Precipitação Vento Pressão Humidade
00:00 +22°C° 0 mm 3 m/s 750 mmHg 40%
01:00 +22°C° 0 mm 3 m/s 750 mmHg 38%
02:00 +21°C° 0 mm 3 m/s 750 mmHg 37%
03:00 +21°C° 0 mm 3 m/s 749 mmHg 35%
04:00 +20°C° 0 mm 4 m/s 750 mmHg 35%
05:00 +20°C° 0 mm 4 m/s 750 mmHg 34%
06:00 +20°C° 0 mm 4 m/s 750 mmHg 34%
07:00 +22°C° 0 mm 4 m/s 751 mmHg 30%
08:00 +25°C° 0 mm 3 m/s 751 mmHg 26%
09:00 +27°C° 0 mm 3 m/s 751 mmHg 22%
10:00 +28°C° 0 mm 3 m/s 751 mmHg 20%
11:00 +30°C° 0 mm 3 m/s 750 mmHg 18%
12:00 +31°C° 0 mm 3 m/s 750 mmHg 17%
13:00 +31°C° 0 mm 3 m/s 749 mmHg 19%
14:00 +30°C° 0 mm 4 m/s 748 mmHg 21%
15:00 +30°C° 0 mm 4 m/s 748 mmHg 24%
16:00 +28°C° 0 mm 3 m/s 748 mmHg 31%
17:00 +27°C° 0 mm 2 m/s 748 mmHg 38%
18:00 +25°C° 0 mm 1 m/s 749 mmHg 46%
19:00 +25°C° 0 mm 1 m/s 749 mmHg 48%
20:00 +24°C° 0 mm 2 m/s 749 mmHg 50%
21:00 +24°C° 0 mm 2 m/s 750 mmHg 53%
22:00 +23°C° 0 mm 2 m/s 750 mmHg 54%
23:00 +23°C° 0 mm 2 m/s 749 mmHg 55%
Mostrar mais

Necessitamos do seu Consentimento

A Meteoprog e os seus Fornecedores de Serviços podem armazenar e aceder a dados pessoais como cookies, identificadores do dispositivo ou outras tecnologias semelhantes existentes no seu dispositivo e processar estes dados para personalizar conteúdos e anúncios, assim como funcionalidades nas redes sociais e análise de tráfego.

  • Armazenar e/ou aceder a informações no seu dispositivo

    Os cookies, identificadores do dispositivo ou outras informações podem ser armazenados ou acedidos no seu dispositivo, para os fins acima indicados.

  • Anúncios e conteúdos personalizados, medição de anúncios e conteúdos, dados sobre o público-alvo e desenvolvimento de produtos

    Os anúncios e os conteúdos podem ser personalizados com base num perfil. Podem ser adicionados dados adicionais para uma maior personalização dos anúncios e dos conteúdos. A eficácia dos anúncios e dos conteúdos pode ser medida. Podem ser obtidas informações sobre o público que visualizou os anúncios e os conteúdos. Estes dados podem ser usados para desenvolver ou melhorar sistemas, softwares ou a experiência do utilizador.

Ao clicar em "Eu concordo”, permitirá o uso de cookies, identificadores do dispositivo e web beacons mencionados ou outras tecnologias semelhantes. As configurações do navegador do seu dispositivo podem ser alteradas.

Para certos fins, podem ser invocados interesses legítimos ao invés de consentimento. Pode ler mais informação sobre este assunto na nossa Política de Privacidade e Cookies.